Wind_Speed
31 31 31 31 31 30 29 28 27 24 22 20 17 14 9 6 7 10 12 16 20 24 27 29 31 32 33 34 35 37 37 35 34 33 32 32 32 30 31 31 32 32 32
30 31 31 32 31 31 30 29 28 26 24 21 18 16 11 7 5 6 10 12 16 20 24 27 29 30 31 32 34 35 36 36 35 34 34 34 33 33 32 32 32 33 33
30 31 31 31 31 31 31 30 29 28 25 23 20 17 13 9 5 4 6 9 12 16 20 23 26 27 28 30 32 33 35 35 35 35 35 34 34 34 33 33 33 32 33
29 30 30 30 31 31 31 31 30 28 26 24 22 19 15 12 7 3 3 6 9 13 16 20 23 25 25 27 29 31 33 34 34 35 35 35 35 34 33 33 33 33 33
28 29 29 30 30 31 30 30 30 29 27 24 22 20 18 14 10 6 4 3 6 9 13 16 19 21 23 25 26 28 30 32 34 35 35 35 35 34 33 32 32 33 34
27 28 28 29 29 29 30 29 30 29 27 25 22 21 19 17 13 10 7 4 3 6 9 12 15 18 20 23 24 26 28 30 32 33 34 34 34 34 34 34 33 33 33
26 27 27 27 28 28 29 29 29 29 28 25 23 21 20 18 16 13 10 7 3 3 6 9 12 15 17 19 22 23 25 26 29 31 32 33 33 33 33 33 32 31 30
25 26 26 26 27 27 27 28 28 28 27 26 24 22 20 19 17 15 12 9 6 3 4 7 9 12 15 17 19 21 22 24 25 27 28 30 31 32 32 31 31 32 31
25 25 25 25 26 26 26 26 26 26 26 26 24 23 21 19 18 16 14 12 9 5 4 5 7 10 12 14 17 19 20 21 23 25 26 27 28 29 30 31 31 31 31
24 24 24 24 24 24 25 25 25 24 24 24 24 23 21 20 18 17 16 13 11 8 5 4 6 8 10 12 14 17 18 20 21 23 25 25 26 26 27 29 29 28 29
24 24 24 24 24 24 24 24 24 23 23 23 23 22 22 21 19 18 17 15 12 10 7 5 5 6 8 10 12 14 16 18 19 21 23 25 26 25 25 26 27 27 27
24 24 24 24 23 23 23 23 23 22 22 22 22 21 21 21 20 19 17 16 14 11 9 7 6 6 7 8 10 12 14 15 17 19 21 23 24 24 24 25 25 26 26
24 24 24 24 24 23 23 23 22 22 21 21 21 21 20 20 20 19 18 17 15 13 11 9 8 7 7 7 8 10 12 13 15 17 19 21 22 23 24 25 25 25 25
25 25 25 25 24 24 23 23 22 22 21 21 21 20 20 19 19 19 18 17 16 14 12 11 10 9 8 7 8 9 10 12 14 16 17 19 21 23 23 24 25 26 27
26 26 26 26 25 25 24 24 23 23 22 21 20 20 20 19 19 18 18 17 16 14 13 12 11 10 9 9 9 10 11 12 13 15 16 18 19 21 22 23 24 26 25
28 28 27 27 27 26 26 25 25 24 23 23 21 20 20 19 19 19 18 17 16 15 14 13 12 11 11 10 10 10 11 13 14 14 16 17 19 20 21 22 23 24 24
29 29 28 29 29 28 28 27 26 25 25 24 23 22 22 21 20 19 19 18 17 17 16 15 13 12 12 12 11 11 11 12 14 15 15 17 18 20 21 22 22 22 23
30 30 30 30 30 30 29 29 28 27 26 25 25 24 24 23 22 21 21 20 19 18 18 17 16 15 14 13 13 13 13 13 14 15 15 17 18 20 21 21 22 22 23
31 31 31 31 31 30 30 29 29 28 27 27 26 26 26 25 25 24 23 22 21 21 20 19 18 18 17 16 15 15 14 14 14 15 16 17 18 19 20 21 21 22 22
33 33 33 32 32 32 31 31 30 30 29 29 28 28 28 27 27 27 27 26 25 24 23 22 21 20 20 19 18 17 17 17 16 16 17 18 18 18 19 20 21 22 22
35 35 34 34 34 34 33 33 32 32 32 31 31 31 31 31 30 30 30 29 29 28 27 27 25 24 23 22 22 21 20 19 19 19 19 19 19 19 20 20 21 22 22
37 37 36 36 36 36 35 35 35 35 35 35 34 35 35 34 34 34 34 33 33 33 32 31 30 29 28 26 25 25 24 23 22 22 22 22 22 22 22 21 22 23 23
39 38 38 38 37 37 37 37 37 38 38 38 38 38 38 38 38 38 38 38 37 37 36 35 35 34 32 31 30 29 28 27 27 26 25 24 24 24 24 24 24 23 24
40 39 39 39 39 39 39 40 41 41 42 42 42 42 42 42 42 42 42 42 41 41 40 40 39 38 37 36 34 33 32 32 31 30 29 28 27 26 26 26 26 25 25
41 41 41 41 42 42 43 43 44 44 44 44 45 45 45 45 45 46 46 46 46 45 45 44 43 42 41 40 39 38 37 36 35 34 33 32 31 30 29 28 28 28 28
43 43 44 44 45 45 45 46 46 47 47 47 47 48 48 48 48 48 49 49 49 48 48 48 47 47 46 45 44 42 41 40 39 38 37 36 34 33 33 32 31 30 30
Wind_Direction
8 8 9 9 9 9 9 9 8 6 3 1 360 354 342 312 273 252 240 233 231 229 227 226 225 226 227 227 228 229 230 231 233 234 234 233 234 234 236 238 238 240 243
9 9 10 10 11 11 12 12 11 10 8 6 4 2 354 338 304 266 246 237 231 228 227 226 226 227 228 228 229 231 231 231 232 233 234 235 236 237 238 239 240 241 242
8 9 11 12 13 14 14 14 14 14 14 13 12 10 6 359 340 297 252 238 233 229 228 227 226 227 229 229 230 232 232 232 232 234 235 237 237 239 239 239 241 242 242
8 9 11 12 13 13 14 14 14 16 17 18 19 18 17 16 8 339 280 243 234 230 228 227 227 228 229 229 231 233 234 234 234 235 236 237 237 237 238 238 240 242 242
6 8 10 11 12 13 14 15 16 17 18 19 21 21 21 20 20 11 346 278 241 232 230 229 228 228 230 230 232 233 234 235 236 235 236 236 237 236 237 238 240 241 242
4 6 8 10 11 12 13 14 15 16 17 19 20 22 23 24 23 19 8 338 271 243 235 231 229 230 230 231 232 233 234 235 235 235 236 236 236 238 238 239 240 240 242
1 3 5 7 8 10 12 13 14 16 18 20 21 22 22 22 22 20 16 8 336 262 242 234 232 232 234 235 235 236 236 236 235 235 236 236 238 238 239 239 238 240 242
358 0 2 3 5 6 9 11 12 14 16 18 19 19 18 19 20 18 12 6 354 311 267 248 238 237 238 238 238 238 238 238 236 235 236 236 238 238 239 239 240 240 241
354 356 358 360 1 3 4 7 9 11 13 15 16 17 17 17 17 17 15 12 7 348 305 268 249 244 243 241 241 240 238 238 237 236 236 235 235 236 239 241 241 240 242
348 350 353 355 357 359 0 2 5 7 9 11 13 14 14 14 13 13 13 11 7 0 339 299 268 254 247 245 243 240 238 238 236 234 233 233 235 236 238 240 240 239 240
343 345 347 349 351 353 355 357 360 2 4 6 8 9 10 10 9 8 7 7 5 0 353 335 301 275 258 251 245 241 238 237 235 234 233 233 235 236 237 238 239 240 241
337 339 341 343 345 347 349 351 353 356 357 359 1 3 4 5 6 6 4 2 2 359 353 344 327 298 281 264 251 243 241 239 237 236 235 236 236 236 238 239 239 241 242
331 333 335 337 339 340 342 344 346 348 349 351 353 355 357 359 1 3 3 2 0 357 351 344 333 318 299 282 261 250 249 245 240 238 237 237 237 237 238 239 238 240 243
325 327 329 330 332 333 334 336 338 340 341 342 344 346 348 350 353 355 357 358 357 356 353 349 341 328 312 294 279 266 257 249 243 241 239 238 238 237 237 238 239 241 243
319 320 322 323 325 327 327 328 329 331 333 334 335 337 339 341 342 344 346 348 348 348 345 341 336 331 316 300 288 280 266 255 253 249 244 242 241 240 240 240 241 243 243
314 315 316 317 319 320 321 321 321 322 323 324 325 326 327 329 331 333 334 335 337 337 336 332 328 324 319 309 296 284 271 261 258 254 249 246 245 244 243 243 242 242 242
310 310 311 312 313 314 314 315 315 314 314 315 315 315 316 317 319 320 322 324 324 325 325 324 321 317 313 309 301 291 281 269 262 258 255 252 249 247 245 244 244 243 243
308 307 307 308 309 309 309 309 310 310 309 308 308 308 308 308 309 310 310 311 312 313 313 312 312 309 305 303 300 293 283 273 266 261 258 256 254 250 248 247 247 247 246
306 306 306 307 307 306 305 306 306 306 306 305 304 303 302 302 302 302 302 302 302 302 303 302 302 302 300 297 293 290 284 276 270 266 262 260 259 256 253 251 249 248 248
304 304 304 304 304 303 303 302 302 302 302 301 301 300 298 297 296 295 295 294 294 293 293 293 292 291 291 290 287 285 282 277 273 271 267 264 262 259 255 252 250 249 250
301 301 301 301 301 301 300 299 298 298 298 297 297 296 295 294 292 291 289 288 287 287 286 285 285 284 283 282 281 279 278 275 272 270 268 266 263 260 258 255 252 250 250
298 298 298 298 298 298 297 297 296 296 296 295 294 293 292 291 290 288 287 285 283 282 280 280 279 279 278 277 275 274 273 271 269 268 265 265 264 260 258 256 253 250 249
297 297 297 297 297 297 297 296 296 296 295 294 293 291 290 289 288 286 284 283 281 279 277 276 274 273 273 272 271 270 269 268 267 266 264 264 263 261 259 257 255 253 251
295 295 296 296 296 296 296 296 295 295 294 294 293 291 289 287 286 284 283 281 279 277 275 273 271 270 269 268 267 266 265 264 263 263 262 261 261 260 258 256 254 253 252
294 295 295 296 296 296 296 296 296 296 295 294 292 291 290 288 286 285 283 280 278 275 272 270 268 267 265 264 263 262 262 262 261 260 260 259 258 257 256 255 254 253 251
294 295 295 296 296 297 297 297 297 296 295 294 293 292 291 289 288 285 283 280 278 275 272 268 266 264 262 260 260 259 258 258 258 257 257 256 256 255 254 253 253 253 252
Height
5803 5797 5790 5783 5776 5770 5764 5757 5751 5746 5741 5737 5733 5729 5727 5726 5727 5728 5730 5733 5736 5740 5745 5750 5756 5761 5767 5772 5777 5783 5789 5794 5800 5805 5809 5814 5818 5823 5827 5830 5834 5838 5841
5804 5798 5791 5784 5778 5771 5765 5759 5753 5747 5742 5737 5733 5729 5727 5725 5725 5726 5728 5730 5733 5736 5741 5746 5750 5756 5761 5766 5771 5777 5782 5787 5793 5798 5802 5807 5811 5816 5820 5823 5827 5831 5834
5806 5799 5793 5786 5780 5773 5767 5761 5755 5749 5743 5738 5734 5730 5727 5726 5725 5725 5726 5728 5731 5734 5737 5741 5746 5751 5756 5761 5765 5770 5775 5780 5785 5791 5795 5800 5804 5808 5812 5816 5820 5823 5826
5807 5801 5795 5789 5782 5776 5770 5764 5758 5752 5746 5741 5736 5732 5729 5727 5726 5725 5726 5727 5729 5731 5734 5738 5742 5746 5751 5755 5760 5764 5769 5773 5778 5783 5788 5792 5796 5800 5804 5809 5812 5816 5819
5808 5802 5796 5791 5785 5779 5773 5767 5761 5755 5749 5744 5740 5736 5732 5729 5727 5726 5726 5726 5728 5730 5732 5735 5738 5742 5746 5750 5754 5758 5763 5767 5771 5776 5780 5785 5789 5793 5797 5801 5805 5808 5811
5809 5803 5798 5792 5787 5781 5775 5770 5764 5758 5753 5748 5743 5739 5735 5732 5730 5728 5727 5727 5727 5728 5730 5732 5735 5738 5742 5745 5749 5753 5756 5760 5764 5768 5772 5777 5781 5785 5789 5793 5797 5800 5804
5809 5804 5799 5794 5789 5783 5778 5772 5767 5761 5756 5751 5746 5743 5739 5736 5733 5730 5729 5728 5727 5728 5729 5730 5732 5735 5738 5741 5744 5747 5750 5753 5757 5761 5765 5769 5773 5778 5782 5785 5789 5792 5796
5809 5805 5800 5795 5790 5785 5780 5775 5769 5764 5759 5754 5750 5746 5742 5739 5735 5733 5730 5729 5728 5727 5728 5729 5730 5732 5734 5737 5739 5742 5745 5748 5751 5755 5759 5762 5766 5769 5773 5777 5781 5784 5788
5809 5805 5800 5795 5791 5786 5781 5776 5771 5767 5762 5757 5753 5748 5745 5741 5738 5735 5732 5730 5729 5728 5727 5728 5728 5729 5731 5733 5735 5737 5739 5742 5745 5749 5752 5756 5759 5763 5766 5770 5773 5777 5780
5808 5804 5800 5795 5791 5786 5782 5777 5773 5768 5764 5759 5755 5751 5747 5744 5740 5737 5734 5732 5730 5729 5728 5727 5727 5728 5728 5729 5731 5733 5735 5737 5740 5743 5746 5750 5753 5756 5760 5763 5766 5770 5773
5807 5803 5799 5794 5790 5786 5782 5778 5773 5769 5765 5761 5757 5753 5749 5745 5742 5739 5736 5733 5731 5729 5728 5727 5727 5727 5727 5727 5728 5729 5731 5733 5735 5738 5741 5744 5747 5750 5753 5756 5760 5763 5766
5805 5801 5797 5793 5789 5785 5782 5778 5773 5769 5766 5762 5758 5754 5751 5747 5743 5740 5737 5734 5732 5730 5728 5727 5726 5726 5725 5725 5726 5727 5728 5730 5731 5734 5736 5739 5742 5745 5748 5750 5753 5756 5759
5802 5799 5795 5791 5788 5784 5780 5777 5773 5769 5766 5762 5758 5755 5751 5748 5744 5741 5738 5735 5732 5730 5728 5727 5726 5725 5724 5724 5724 5725 5725 5726 5728 5729 5732 5734 5736 5739 5741 5744 5746 5749 5752
5799 5795 5792 5789 5785 5782 5778 5775 5771 5768 5765 5761 5758 5754 5751 5748 5745 5742 5739 5736 5733 5730 5728 5727 5725 5724 5723 5723 5722 5722 5723 5723 5724 5726 5727 5729 5731 5733 5735 5737 5740 5743 5745
5794 5791 5788 5785 5781 5778 5775 5772 5768 5765 5762 5759 5756 5753 5750 5747 5744 5741 5739 5736 5733 5731 5728 5727 5725 5724 5722 5721 5721 5720 5720 5721 5721 5722 5723 5725 5726 5728 5730 5732 5734 5736 5738
5789 5786 5783 5780 5777 5774 5771 5768 5765 5762 5759 5756 5753 5750 5748 5745 5742 5740 5737 5735 5732 5730 5727 5725 5724 5722 5720 5719 5718 5718 5717 5717 5718 5718 5719 5720 5722 5723 5725 5726 5728 5730 5732
5783 5780 5777 5774 5771 5768 5766 5763 5760 5758 5755 5752 5749 5746 5744 5742 5739 5737 5735 5732 5730 5728 5726 5724 5722 5720 5718 5717 5716 5715 5714 5714 5714 5714 5715 5716 5717 5718 5719 5721 5722 5724 5725
5776 5773 5771 5768 5765 5762 5759 5757 5754 5752 5750 5747 5744 5741 5739 5737 5735 5733 5731 5729 5727 5725 5723 5721 5719 5717 5715 5714 5713 5711 5711 5710 5710 5710 5711 5711 5712 5713 5714 5715 5716 5718 5719
5769 5766 5763 5761 5758 5755 5752 5750 5747 5745 5743 5740 5738 5736 5733 5731 5729 5727 5725 5724 5722 5720 5718 5717 5715 5713 5712 5710 5709 5708 5707 5706 5706 5706 5706 5706 5707 5707 5708 5709 5710 5712 5713
5761 5758 5755 5753 5750 5747 5745 5742 5740 5737 5735 5733 5731 5728 5726 5724 5722 5721 5719 5717 5715 5714 5712 5711 5709 5708 5707 5705 5704 5703 5702 5702 5702 5701 5701 5701 5701 5702 5702 5703 5704 5705 5707
5753 5750 5747 5744 5741 5739 5736 5733 5731 5729 5726 5724 5722 5720 5718 5716 5714 5712 5711 5709 5707 5706 5705 5703 5702 5701 5700 5699 5698 5697 5697 5696 5696 5696 5695 5695 5695 5696 5696 5697 5698 5699 5700
5743 5740 5737 5735 5732 5729 5726 5724 5721 5719 5717 5714 5712 5710 5707 5705 5703 5702 5700 5699 5698 5696 5695 5694 5693 5692 5692 5691 5690 5690 5689 5689 5689 5689 5689 5689 5689 5689 5689 5690 5691 5692 5693
5732 5729 5726 5724 5721 5718 5716 5713 5711 5708 5705 5703 5700 5698 5696 5694 5692 5690 5688 5687 5685 5684 5684 5683 5683 5682 5682 5681 5681 5681 5681 5681 5680 5680 5681 5681 5681 5681 5682 5683 5683 5684 5685
5720 5718 5715 5712 5709 5707 5704 5701 5698 5696 5693 5690 5687 5685 5682 5680 5678 5676 5674 5673 5672 5671 5670 5669 5669 5669 5670 5670 5670 5670 5670 5670 5670 5671 5671 5672 5673 5673 5674 5674 5675 5676 5677
5708 5705 5703 5700 5697 5694 5691 5688 5685 5682 5679 5675 5673 5670 5667 5664 5662 5660 5658 5657 5656 5655 5654 5654 5654 5655 5655 5656 5656 5657 5657 5658 5659 5659 5660 5661 5662 5663 5664 5665 5666 5667 5669
5696 5693 5690 5686 5683 5680 5677 5673 5670 5666 5663 5660 5657 5653 5650 5647 5645 5642 5640 5638 5637 5636 5636 5636 5637 5637 5638 5639 5641 5642 5643 5644 5645 5646 5648 5649 5651 5652 5654 5655 5656 5658 5659